Date String (YYYY-MM-DD hh:mm:ss) UTC,Instrument flags,Ambient pressure (hPa),Sample flow (lpm),Bypass flow (lpm),Sample temperature (°C),Ambient temperature (°C),ASC tube jacket temperature (°C),LED temperature (°C),Box temperature (°C),Sample RH (%),Span deviation,Mass concentration (μg/m³),Mass concentration (μg/m³),Mass concentration (μg/m³)
DateTimeUTC,F1_M11,P_M11,Q1_M11,Q2_M11,T1_M11,T2_M11,T3_M11,T4_M11,T5_M11,U1_M11,ZSPAN_M11,X0_M11,X2_M11,X1_M11
2022-02-05 23:00:00,,0825.1,5.00,0.00,23.2,22.7,00.0,32.0,25.0,08.1,0000.0,0001.01,0000.67,0000.51
2022-02-05 23:01:00,,0825.1,5.00,0.00,23.2,22.8,00.0,32.0,25.1,08.2,0000.0,0000.99,0000.66,0000.50
2022-02-05 23:02:00,,0825.1,4.99,0.00,23.2,22.8,00.0,32.0,25.0,08.2,0000.0,0000.96,0000.64,0000.49
2022-02-05 23:03:00,,0824.9,5.01,0.00,23.2,22.8,00.0,32.1,25.1,08.0,0000.0,0001.07,0000.68,0000.50
2022-02-05 23:04:00,,0824.9,5.00,0.00,23.3,22.8,00.0,32.1,25.1,08.0,0000.0,0001.07,0000.68,0000.50
2022-02-05 23:05:00,,0824.9,5.00,0.00,23.3,22.8,00.0,32.1,25.1,08.1,0000.0,0001.18,0000.70,0000.51
2022-02-05 23:06:00,,0824.9,5.00,0.00,23.3,22.8,00.0,32.1,25.1,07.8,0000.0,0001.19,0000.69,0000.51
2022-02-05 23:07:00,,0824.7,4.99,0.00,23.3,22.8,00.0,32.1,25.1,07.5,0000.0,0001.15,0000.67,0000.50
2022-02-05 23:08:00,,0824.7,5.01,0.00,23.3,22.8,00.0,32.2,25.1,07.2,0000.0,0001.11,0000.65,0000.50
2022-02-05 23:09:00,,0824.8,4.99,0.00,23.3,22.8,00.0,32.2,25.1,06.9,0000.0,0001.08,0000.63,0000.48
2022-02-05 23:10:00,,0824.9,5.00,0.00,23.3,22.7,00.0,32.2,25.1,07.2,0000.0,0001.13,0000.64,0000.48
2022-02-05 23:11:00,,0824.8,5.00,0.00,23.3,22.7,00.0,32.2,25.1,07.5,0000.0,0001.21,0000.66,0000.48
2022-02-05 23:12:00,,0824.7,5.00,0.00,23.3,22.7,00.0,32.2,25.0,07.2,0000.0,0001.24,0000.66,0000.47
2022-02-05 23:13:00,,0824.9,5.02,0.00,23.3,22.7,00.0,32.2,25.0,07.3,0000.0,0001.28,0000.66,0000.46
2022-02-05 23:14:00,,0824.7,5.00,0.00,23.3,22.7,00.0,32.2,25.1,07.5,0000.0,0001.22,0000.65,0000.44
2022-02-05 23:15:00,,0824.7,5.00,0.00,23.3,22.6,00.0,32.2,25.1,07.3,0000.0,0001.19,0000.63,0000.44
2022-02-05 23:16:00,,0824.9,4.99,0.00,23.3,22.6,00.0,32.2,25.1,07.7,0000.0,0001.10,0000.61,0000.43
2022-02-05 23:17:00,,0824.8,5.00,0.00,23.2,22.6,00.0,32.2,24.9,08.1,0000.0,0001.00,0000.59,0000.43
2022-02-05 23:18:00,,0824.7,4.99,0.00,23.2,22.6,00.0,32.2,25.0,07.7,0000.0,0001.05,0000.62,0000.44
2022-02-05 23:19:00,,0824.8,5.01,0.00,23.2,22.6,00.0,32.2,25.0,07.7,0000.0,0001.11,0000.65,0000.45
2022-02-05 23:20:00,,0824.7,5.00,0.00,23.2,22.6,00.0,32.2,25.0,07.5,0000.0,0001.11,0000.65,0000.45
2022-02-05 23:21:00,,0824.7,4.99,0.00,23.2,22.6,00.0,32.2,25.0,07.4,0000.0,0001.05,0000.63,0000.44
2022-02-05 23:22:00,,0824.6,5.01,0.00,23.2,22.6,00.0,32.2,25.0,07.2,0000.0,0000.95,0000.61,0000.45
2022-02-05 23:23:00,,0824.5,4.98,0.00,23.2,22.5,00.0,32.2,25.0,07.3,0000.0,0000.93,0000.60,0000.45
2022-02-05 23:24:00,,0824.6,5.01,0.00,23.2,22.5,00.0,32.2,25.0,07.2,0000.0,0000.87,0000.59,0000.45
2022-02-05 23:25:00,,0824.6,5.00,0.00,23.2,22.5,00.0,32.2,24.9,07.1,0000.0,0000.78,0000.55,0000.45
2022-02-05 23:26:00,,0824.6,5.00,0.00,23.2,22.5,00.0,32.2,24.9,07.5,0000.0,0000.75,0000.54,0000.45
2022-02-05 23:27:00,,0824.6,5.01,0.00,23.2,22.5,00.0,32.2,24.9,07.7,0000.0,0000.79,0000.56,0000.45
2022-02-05 23:28:00,,0824.6,4.99,0.00,23.2,22.5,00.0,32.2,24.9,07.7,0000.0,0000.86,0000.59,0000.44
2022-02-05 23:29:00,,0824.6,4.99,0.00,23.2,22.5,00.0,32.2,24.9,07.5,0000.0,0000.80,0000.56,0000.43
2022-02-05 23:30:00,,0824.6,4.99,0.00,23.2,22.5,00.0,32.2,24.9,07.7,0000.0,0000.75,0000.53,0000.42
2022-02-05 23:31:00,,0824.6,5.01,0.00,23.1,22.5,00.0,32.1,24.9,07.8,0000.0,0000.72,0000.52,0000.42
2022-02-05 23:32:00,,0824.6,4.98,0.00,23.1,22.5,00.0,32.1,24.9,07.6,0000.0,0000.71,0000.52,0000.42
2022-02-05 23:33:00,,0824.6,5.02,0.00,23.1,22.5,00.0,32.1,24.9,07.2,0000.0,0000.70,0000.52,0000.42
2022-02-05 23:34:00,,0824.5,4.99,0.00,23.1,22.5,00.0,32.1,24.9,07.5,0000.0,0000.71,0000.52,0000.42
2022-02-05 23:35:00,,0824.6,5.01,0.00,23.1,22.4,00.0,32.1,24.9,07.1,0000.0,0000.78,0000.54,0000.42
2022-02-05 23:36:00,,0824.6,4.99,0.00,23.1,22.4,00.0,32.1,24.9,07.4,0000.0,0000.80,0000.54,0000.41
2022-02-05 23:37:00,,0824.6,5.00,0.00,23.1,22.4,00.0,32.1,24.9,07.2,0000.0,0000.95,0000.57,0000.40
2022-02-05 23:38:00,,0824.6,4.98,0.00,23.1,22.4,00.0,32.1,24.9,07.0,0000.0,0000.93,0000.54,0000.40
2022-02-05 23:39:00,,0824.7,5.01,0.00,23.1,22.4,00.0,32.1,24.8,07.3,0000.0,0000.91,0000.53,0000.40
2022-02-05 23:40:00,,0824.7,5.00,0.00,23.1,22.4,00.0,32.1,24.8,07.7,0000.0,0000.96,0000.55,0000.41
2022-02-05 23:41:00,,0824.6,5.01,0.00,23.1,22.4,00.0,32.1,24.7,08.2,0000.0,0001.00,0000.56,0000.41
2022-02-05 23:42:00,,0824.7,4.98,0.00,23.1,22.4,00.0,32.1,24.7,07.9,0000.0,0002.72,0000.59,0000.41
2022-02-05 23:43:00,,0824.6,5.02,0.00,23.1,22.4,00.0,32.1,24.8,07.6,0000.0,0003.57,0000.58,0000.41
2022-02-05 23:44:00,,0824.5,4.98,0.00,23.1,22.4,00.0,32.1,24.8,07.6,0000.0,0003.99,0000.59,0000.40
2022-02-05 23:45:00,,0824.5,5.00,0.00,23.1,22.4,00.0,32.1,24.9,07.5,0000.0,0004.09,0000.62,0000.40
2022-02-05 23:46:00,,0824.6,5.00,0.00,23.1,22.4,00.0,32.1,24.8,07.6,0000.0,0004.13,0000.63,0000.41
2022-02-05 23:47:00,,0824.5,5.01,0.00,23.0,22.3,00.0,32.1,24.8,07.3,0000.0,0004.19,0000.64,0000.42
2022-02-05 23:48:00,,0824.5,4.99,0.00,23.0,22.3,00.0,32.1,24.8,07.7,0000.0,0004.55,0000.62,0000.42
2022-02-05 23:49:00,,0824.6,5.01,0.00,23.0,22.2,00.0,32.1,24.8,07.0,0000.0,0004.67,0000.65,0000.43
2022-02-05 23:50:00,,0824.5,4.98,0.00,23.0,22.2,00.0,32.0,24.7,07.4,0000.0,0004.65,0000.64,0000.42
2022-02-05 23:51:00,,0824.6,5.03,0.00,23.0,22.2,00.0,32.0,24.7,07.5,0000.0,0004.61,0000.62,0000.42
2022-02-05 23:52:00,,0824.6,4.99,0.00,23.0,22.2,00.0,32.0,24.7,07.6,0000.0,0004.57,0000.61,0000.42
2022-02-05 23:53:00,,0824.6,5.00,0.00,22.9,22.2,00.0,32.0,24.7,07.5,0000.0,0003.04,0000.59,0000.42
2022-02-05 23:54:00,,0824.6,5.00,0.00,22.9,22.2,00.0,32.0,24.6,07.9,0000.0,0002.18,0000.59,0000.42
2022-02-05 23:55:00,,0824.6,5.00,0.00,22.9,22.1,00.0,32.0,24.6,07.7,0000.0,0001.61,0000.59,0000.42
2022-02-05 23:56:00,,0824.7,5.01,0.00,22.9,22.1,00.0,32.0,24.6,07.2,0000.0,0001.52,0000.55,0000.41
2022-02-05 23:57:00,,0824.6,4.99,0.00,22.9,22.1,00.0,32.0,24.7,07.1,0000.0,0001.44,0000.54,0000.41
2022-02-05 23:58:00,,0824.6,5.00,0.00,22.9,22.1,00.0,32.0,24.7,07.2,0000.0,0001.88,0000.53,0000.41
2022-02-05 23:59:00,,0824.7,5.00,0.00,22.9,22.0,00.0,31.9,24.7,07.3,0000.0,0002.02,0000.56,0000.41
